Teterboro, NJ

4:29 AM EST on November 17, 2019 (GMT -0500)
Teterboro

Weather History for KTEB - September, 2019

Change the Weather History Date:

Friday, September 27, 2019

  Actual Average Record
Temperature  
Mean Temperature 66 °F -  
Max Temperature 79 °F 70 °F 91 °F (1998)
Min Temperature 55 °F 50 °F 19 °F (2003)
Cooling Degree Days 2    
Growing Degree Days 16 (Base 50)    
Moisture  
Dew Point 52 °F    
Average Humidity 65    
Maximum Humidity 93    
Minimum Humidity 28    
Precipitation  
Precipitation 0.00 in - - ()
Sea Level Pressure  
Sea Level Pressure 30.08 in    
Wind  
Wind Speed 3 mph ()    
Max Wind Speed 10 mph    
Max Gust Speed -    
Visibility 10.0 miles    
Events Fog    
Averages and records for this station are not official NWS values.
T = Trace of Precipitation, MM = Missing Value Source: Averaged Metar Reports

Daily Weather History Graph

Daily Weather History Graph

Search for Another Location

Airport or City:

Astronomy

Sep. 27, 2019 Rise Set
Actual Time 6:48 AM EDT 6:45 PM EDT
Civil Twilight 6:21 AM EDT 7:12 PM EDT
Nautical Twilight 5:49 AM EDT 7:44 PM EDT
Astronomical Twilight 5:16 AM EDT 8:16 PM EDT
Moon 5:05 AM EDT (9/27) 6:35 PM EDT (9/27)
Length of Visible Light 12h 51m
Length of Day
11h 56m
Waning Crescent, 2% of the Moon is Illuminated
Sep 27
Waning Crescent
Sep 28
New
Oct 5
First Quarter
Oct 13
Full
Oct 21
Last Quarter

Hourly Weather History & Observations

Time (EDT) Temp. Dew Point Humidity Pressure Visibility Wind Dir Wind Speed Gust Speed Precip Events Conditions
12:51 AM 60.1 °F 57.0 °F 90% 29.95 in 10.0 mi NW 3.5 mph - N/A Fog Shallow Fog
1:51 AM 60.1 °F 57.0 °F 90% 29.96 in 10.0 mi Calm Calm - N/A Fog Shallow Fog
2:51 AM 57.9 °F 55.0 °F 90% 29.99 in 10.0 mi North 3.5 mph - N/A Fog Shallow Fog
3:51 AM 57.0 °F 54.0 °F 89% 30.00 in 10.0 mi Calm Calm - N/A Fog Shallow Fog
4:51 AM 57.9 °F 55.0 °F 90% 30.02 in 10.0 mi Calm Calm - N/A Fog Shallow Fog
5:51 AM 57.0 °F 54.0 °F 89% 30.03 in 10.0 mi North 3.5 mph - N/A Fog Shallow Fog
6:51 AM 55.0 °F 53.1 °F 93% 30.06 in 9.0 mi Calm Calm - N/A Fog Shallow Fog
7:51 AM 59.0 °F 54.0 °F 83% 30.10 in 10.0 mi Calm Calm - N/A Fog Shallow Fog
8:51 AM 62.1 °F 54.0 °F 75% 30.13 in 10.0 mi North 3.5 mph - N/A   Clear
9:51 AM 66.0 °F 51.1 °F 59% 30.15 in 10.0 mi Calm Calm - N/A   Clear
10:51 AM 70.0 °F 48.0 °F 46% 30.14 in 10.0 mi Calm Calm - N/A   Clear
11:51 AM 71.1 °F 46.9 °F 42% 30.14 in 10.0 mi Variable 4.6 mph - N/A   Clear
12:51 PM 73.0 °F 46.9 °F 39% 30.12 in 10.0 mi Variable 4.6 mph - N/A   Clear
1:51 PM 77.0 °F 48.9 °F 37% 30.10 in 10.0 mi Variable 6.9 mph - N/A   Clear
2:51 PM 78.1 °F 42.1 °F 28% 30.08 in 10.0 mi Variable 6.9 mph - N/A   Clear
3:51 PM 78.1 °F 42.1 °F 28% 30.07 in 10.0 mi Calm Calm - N/A   Clear
4:51 PM 75.0 °F 48.9 °F 40% 30.08 in 10.0 mi South 9.2 mph - N/A   Clear
5:51 PM 72.0 °F 50.0 °F 46% 30.10 in 10.0 mi South 9.2 mph - N/A   Smoke
6:51 PM 69.1 °F 50.0 °F 51% 30.11 in 10.0 mi SSW 10.4 mph - N/A   Clear
7:51 PM 66.0 °F 53.1 °F 63% 30.11 in 10.0 mi South 9.2 mph - N/A   Clear
8:51 PM 66.9 °F 55.9 °F 68% 30.12 in 10.0 mi South 9.2 mph - N/A   Clear
9:51 PM 66.0 °F 57.0 °F 73% 30.12 in 10.0 mi South 6.9 mph - N/A   Clear
10:51 PM 64.9 °F 57.0 °F 75% 30.13 in 10.0 mi Calm Calm - N/A   Clear
11:51 PM 64.0 °F 57.0 °F 78% 30.13 in 10.0 mi South 3.5 mph - N/A   Clear